Preview of NWS' New Version of Forecast
This preview is not operational and should not be used for support decisions.

Regional Weather Roundup (RWR)

Issued by National Weather Service (NWS)

                            
000
ASUS44 KJAN 200210
RWRMS 

MISSISSIPPI HOURLY WEATHER ROUNDUP
NATIONAL WEATHER SERVICE JACKSON MS
900 PM CDT THU SEP 19 2019

NOTE: "FAIR: INDICATES FEW OR NO CLOUDS BELOW 12,000 FEET WITH NO
SIGNIFICANT WEATHER AND/OR OBSTRUCTIONS TO VISIBILITY.

MSZ001>002-007>008-010>013-018>021-025>028-034>036-200300-
NORTHWEST MISSISSIPPI
  
CITY           SKY/WX    TMP DP  RH WIND       PRES   REMARKS
BATESVILLE     FAIR      77  72  83 CALM      30.05S                  
CLARKSDALE       N/A     75  75 100 S9        30.04S                  
CLEVELAND      RAIN      74  74 100 E8        30.04F                  
GREENWOOD      FAIR      83  71  67 S6        30.03R                  
GREENVILLE     CLOUDY    75  72  90 N5        30.04R                  
OLIVE BRANCH   CLEAR     79  70  73 SE5       30.05R                  
OXFORD         FAIR      77  70  78 CALM      30.08R                  
TUNICA           N/A     77  72  83 SE6       30.05R                  
WINONA         FAIR      77  72  84 CALM      30.06R                  
$$

MSZ003>006-009-014>017-022>024-029>033-037>039-200300-
NORTHEAST MISSISSIPPI
  
CITY           SKY/WX    TMP DP  RH WIND       PRES   REMARKS
ABERDEEN       FAIR      72  55  56 CALM      30.07R                  
COLUMBUS AFB   FAIR      76  71  86 E3        30.05R                  
CORINTH        FAIR      73  70  88 CALM      30.07R                  
GOLDN TRIANGLE FAIR      78  71  79 S5        30.07R                  
STARKVILLE       N/A     73  70  88 CALM      30.07R                  
TUPELO         FAIR      78  70  76 CALM      30.07R                  
$$

MSZ040-058-200300-
CENTRAL MISSISSIPPI
  
CITY           SKY/WX    TMP DP  RH WIND       PRES   REMARKS
JACKSON INTL   FAIR      73  69  87 S3        30.06R                  
JACKSON HAWKNS FAIR      76  69  79 SE7       30.06R                  
MADISON        FAIR      72  72 100 CALM      30.07R                  
MERIDIAN KEY   FAIR      78  72  81 CALM      30.07R                  
MERIDIAN NAS   MOCLDY    78  71  79 CALM      30.07R                  
RAYMOND        FAIR      77  70  78 CALM      30.05R                  
VICKSBURG VKS  PTCLDY    79  72  78 VRB5      30.04R                  
$$

MSZ059>079-200300-
SOUTH MISSISSIPPI
  
CITY           SKY/WX    TMP DP  RH WIND       PRES   REMARKS
HATTIESBURG    FAIR      75  71  87 CALM      30.07R                  
LAUREL         PTCLDY    74  72  94 E5        30.07R                  
MCCOMB         MOCLDY    80  72  76 E5        30.06R                  
NATCHEZ        FAIR      77  72  84 CALM      30.04R                  
PINE BELT      FAIR      73  72  96 SE5       30.08R                  
$$

MSZ080>082-200300-
COASTAL MISSISSIPPI
  
CITY           SKY/WX    TMP DP  RH WIND       PRES   REMARKS
BILOXI         MOCLDY    77  73  87 E7        30.05R                  
PASCAGOULA     LGT RAIN  76  72  87 SE9       30.06R                  
GULFPORT       FAIR      78  72  81 E8        30.04R                  
$$

LAZ007>009-015>016-023>026-200300-
NORTHEAST LOUISIANA
  
CITY           SKY/WX    TMP DP  RH WIND       PRES   REMARKS
BASTROP        FAIR      73  72  98 CALM      30.04R                  
TALLULAH/VBURG FAIR      79  69  71 S3        30.04R                  
VIDALIA        FAIR     N/A N/A N/A E5        30.02R                  
$$